User: anonymous   Login
Location: Unspecified
(0.0000°N, 0.0000°E)
Time: 06:24:15
(UTC+02:00)
Language:

Ariane 42L R/B - Orbit

View from above orbital plane
View from above orbital plane
View from above satellite
View from above satellite

Ground track
Ground track

The orbit data is extracted from the following two-line orbital elements,

1 26299U 00020B   15185.43364921  .00013804  00000-0  13855-2 0  9992
2 26299 007.3705 195.9566 6056837 104.1714 017.9326 03.98900164189923
Epoch (UTC): 04 July 2015 10:24:27
Eccentricity: 0.6056837
inclination: 7.3705°
perigee height: 244 km
apogee height: 20588 km
right ascension of ascending node: 195.9566°
argument of perigee: 104.1714°
revolutions per day: 3.98900164
mean anomaly at epoch: 17.9326°
orbit number at epoch: 18992

The dashed part of the orbit path shows where the satellite is in the earth's shadow,  

DLR